Weather in Orekhovo

Russia / Kaluga Oblast     55°10′40″N   36°57′56″E
temp.,
°C
wind,
m/s
gust,
m/s
humid.,
%
clouds,
%
prec.,
mm/h
press.,
hPa
HPBL,
m
22 april, thu
thu2200:00+4ssw3893100 0.1 1012299
03:00+2s389662 0.1 1013243
06:00+1s399858 0.0 1013252
09:00+7ssw498087 0.0 1014601
12:00+11sw586892 0.0 10141207
15:00+13sw575745 0.7 10141692
18:00+12s487092 0.9 1014658
21:00+7sse3109197 0.9 1015204
23 april, fri
fri2300:00+7s4129067 0.0 1014347
03:00+6s3129534 0.0 1014325
06:00+6s4129169 0.0 1014407
09:00+11s5147256 0.0 1013831
12:00+15s7145868 0.3 10122243
15:00+8sw31191100 3.4 10131058
18:00+6w2494100 2.7 1013410
21:00+5wsw1196100 3.4 101221
24 april, sat
sat2400:00+4nne2395100 4.9 1010319
03:00+2w2599100 14.6 1009391
06:00+3w2598100 2.8 1008576
09:00+3w3795100 4.1 1008484
12:00+7w466388 0.5 10081564
15:00+8w575696 1.4 10081678
18:00+7wnw3665100 0.5 10081110
21:00+2w27835 0.6 1009146
25 april, sun
sun2500:00+1w3108427 0.0 1010304
03:00−1wsw38915 0.0 1010225
06:000sw39945 0.0 1011341
09:00+4wsw477057 0.1 10101082
12:00+5wsw6862100 1.1 10101616
15:00+7wsw685496 1.9 10101947
18:00+5w486542 0.4 10111394
21:000sw27833 0.4 1013193
26 april, mon
mon2600:00−1ssw29875 0.0 1013236
03:00−1ssw39875 0.0 1013280
06:00−1sw39865 0.0 1013339
09:00+5sw47585 0.0 10121075
12:00+7sw4649100 0.6 10111925
15:00+7sw4553100 1.6 10101601
18:00+6wsw3567100 0.8 1009429
21:00+2wsw2284100 1.4 100921